Weather in Kaikoura

New Zealand     42°23′47″S   173°40′51″E
temp.,
°C
wind,
m/s
gust,
m/s
humid.,
%
clouds,
%
prec.,
mm/h
press.,
hPa
HPBL,
m
21 january, fri
fri2101:00+15ne55673 0.1 1013546
04:00+15nne336784 0.0 1011391
07:00+15n22675 0.0 1012289
10:00+15ssw4368100 0.0 1015271
13:00+16s667368 0.0 1017552
16:00+16sse44675 0.0 1017669
19:00+16ese22686 0.0 1018654
22:00+16e22705 0.0 1021527
22 january, sat
sat2201:00+16ne347390 0.0 1020397
04:00+16ne66785 0.0 1019318
07:00+16ne44773 0.0 1018231
10:00+17ene33760 0.0 1018169
13:00+17ene12745 0.0 1017183
16:00+18sse23733 0.0 1015222
19:00+18ssw34780 0.0 1013252
22:00+18sw89864 0.0 1014272
23 january, sun
sun2301:00+17sw912904 0.0 1013469
04:00+17sw7108849 0.0 1013701
07:00+16s7890100 0.3 1015576
10:00+15s5687100 0.4 1016542
13:00+15sse4484100 0.8 1016491
16:00+16ese3380100 0.2 1016541
19:00+16ese4480100 0.4 1015596
22:00+15e4479100 0.3 1016606
24 january, mon
mon2401:00+15ene4581100 0.8 1016656
04:00+15ne6783100 0.4 1015663
07:00+15ene7783100 0.6 1015701
10:00+16ne8983100 0.1 1015762
13:00+16ne9108389 0.3 1014710
16:00+17ne101083100 0.0 1012723
19:00+17ne101086100 0.0 1011661
22:00+17ne678977 0.0 1012348
25 january, tue
tue2501:00+17nw128962 0.0 101189
04:00+17wsw338639 0.0 1010130
07:00+16wsw33833 0.1 1010145
10:00+17ssw228018 0.0 1010161
13:00+17se22805 0.0 1008165
16:00+18ne228035 0.0 1007256
19:00+18ene238427 0.1 1005264
22:00+18ene1193100 0.4 100639